Regional Weather Roundup
Issued by NWS

Home | Current Version | Previous Version | Graphics & Text | Print | Product List | Glossary On
Versions: 1 2 3 4 5 6 7 8 9 10 11 12 13 14 15 16 17 18 19 20 21 22 23 24 25 26 27 28 29 30 31 32 33 34 35 36 37 38 39 40 41 42 43 44 45 46 47 48 49 50
780
ASUS43 KDMX 290108
RWRIA

WEATHER ROUNDUP FOR IOWA
NATIONAL WEATHER SERVICE DES MOINES IA
800 PM CDT THU JUL 28 2016

NOTE: "FAIR" INDICATES FEW OR NO CLOUDS BELOW 12,000 FEET WITH NO
SIGNIFICANT WEATHER AND/OR OBSTRUCTIONS TO VISIBILITY.

* - THESE STATIONS ARE NOT NWS STATIONS...THUS NOT UNDER NWS
QUALITY CONTROL.  THEY ALSO DO NOT REPORT WEATHER SUCH
AS PRECIPITATION OR FOG.

IAZ001>003-012>014-020>022-031>034-043>046-290200-
   NORTHWEST IOWA

CITY           SKY/WX    TMP DP  RH WIND       PRES   REMARKS
CARROLL *      PTCLDY    72  64  78 NE5       30.00R
CHEROKEE *     CLOUDY    74  65  74 NE8       30.01R
DENISON *      PTCLDY    73  63  68 NE6       30.00R
LE MARS *      PTCLDY    75  63  64 N6        30.03R
SHELDON *      MOCLDY    73  63  68 NE7G14    30.02S
SIOUX CITY     CLOUDY    78  63  59 NE10      30.00R HX  80
SPENCER        CLOUDY    72  62  71 NE7       30.02S
STORM LAKE *   PTCLDY    72  63  73 NE7       30.03R
$$

IAZ055>058-069>071-079>083-090>094-290200-
   SOUTHWEST IOWA

CITY           SKY/WX    TMP DP  RH WIND       PRES   REMARKS
ATLANTIC *     PTCLDY    73  64  73 N8        30.00R
CLARINDA *       N/A     75  68  78 MISG      29.98F
COUNCIL BLFS * CLOUDY    75  64  69 NE7       30.00R
CRESTON *      PTCLDY    73  66  78 NE6       30.00S
HARLAN  *      PTCLDY    72  64  78 N5        30.04R
LAMONI         PTCLDY    74  66  76 NE9       29.97S
RED OAK *      PTCLDY    75  66  73 N8        29.98F
SHENANDOAH *   CLOUDY    75  68  78 N9        29.96F
$$

IAZ047>049-059>061-072>074-084-290200-
   CENTRAL IOWA

CITY           SKY/WX    TMP DP  RH WIND       PRES   REMARKS
AMES           PTCLDY    73  65  75 NW10      29.98R
ANKENY *         N/A    N/A N/A N/A MISG        N/A
BOONE *        PTCLDY    72  64  78 N8        29.98S
CHARITON *       N/A    N/A N/A N/A MISG        N/A
DES MOINES     PTCLDY    77  61  57 N7        29.97R
GRINNELL*      CLEAR     73  65  75 NW5       29.97R
KNOXVILLE *    PTCLDY    75  64  69 MISG      29.95S
MARSHALLTOWN   PTCLDY    73  65  75 N8        29.96R
NEWTON *       CLEAR     73  64  73 NW7G13    29.96R
PELLA *        CLEAR     75  65  70 NW5       29.97R
PERRY *          N/A     73  65  77 N7        29.99S
$$

IAZ004>006-015-016-023>025-035-036-290200-
   NORTH CENTRAL IOWA

CITY           SKY/WX    TMP DP  RH WIND       PRES   REMARKS
ALGONA *       PTCLDY    72  64  78 N8        30.01R
ESTHERVILLE    PTCLDY    69  63  81 N8        30.01F
FORT DODGE *   MOCLDY    72  64  78 N3        30.00R
MASON CITY     CLOUDY    69  65  86 N8        30.01S
FOREST CITY *  MOCLDY    68  63  83 NE7       30.00F
IOWA FALLS *     N/A     72  65  78 N9        29.99R
$$

IAZ007>011-017>019-026>030-037>042-050>054-066-290200-
   NORTHEAST IOWA

CITY           SKY/WX    TMP DP  RH WIND       PRES   REMARKS
CEDAR RAPIDS   CLEAR     74  68  81 NW9       29.92R
CHARLES CITY * CLOUDY    68  64  88 N7G16     29.99R
CLINTON *      MOCLDY    75  71  87 NW6       29.89S
DECORAH *      CLOUDY    64  64 100 N6        29.97S FOG
DUBUQUE        PTCLDY    73  68  84 N12       29.92R
MONTICELLO *   PTCLDY    73  68  83 N9        29.91R
OELWEIN *      CLOUDY    68  64  88 N8G16     29.96R
WATERLOO       CLOUDY    70  62  76 N13       29.95R
$$

IAZ064-065-067-068-078-290200-
   EAST CENTRAL IOWA

CITY           SKY/WX    TMP DP  RH WIND       PRES   REMARKS
DAVENPORT      CLEAR     76  66  71 NW6       29.89F
IOWA CITY      CLEAR     76  66  71 NW12      29.93R
MT. PLEASANT * CLEAR     79  66  65 NW7       29.92R HX  81
MUSCATINE *    CLEAR     77  66  69 NW7       29.90S
QUAD CITIES    CLEAR     80  65  59 NW9       29.87F HX  82
$$

IAZ062-063-075>077-085>089-095>099-290200-
   SOUTHEAST IOWA

CITY           SKY/WX    TMP DP  RH WIND       PRES   REMARKS
BURLINGTON     CLEAR     75  68  78 NW5       29.90S
FAIRFIELD *    CLEAR     73  66  78 NW6       29.93R
KEOKUK *       CLEAR     77  68  73 CALM      29.91R
OTTUMWA        MOCLDY    76  65  68 NW7       29.94R
WASHINGTON *   PTCLDY    75  66  73 NW9       29.93S
$$

ABBREVIATIONS USED IN REMARKS
   TC - TEMPERATURES IN CELSIUS
  WCI - WIND CHILL INDEX
   HX - HEAT INDEX
  VSB - VISIBILITY
$$





USA.gov is the U.S. government's official web portal to all federal, state and local government web resources and services.